Location: Unspecified
(0.0000°N, 0.0000°E)
Time: 18:11:47
(UTC+00:00)

Vanguard 1 - Pass Details

Date: 06 October 2020
Orbit: 650 x 3833 km, 34.3° (Epoch: 26 October)

Event Time Altitude Azimuth Distance (km) Brightness Sun altitude
Rises 01:17:36 0° 344° (NNW) 2,947 - -67.1°
Reaches altitude 10° 01:21:29 10° 20° (NNE) 2,173 - -66.1°
Maximum altitude 01:23:06 11° 40° (NE) 2,175 - -65.7°
Drops below altitude 10° 01:24:51 10° 60° (ENE) 2,414 - -65.3°
Sets 01:29:59 0° 92° (E) 3,885 - -64.0°
